Location: Gunung Kajang
(2.4167°N, 113.7167°E)
Time: 15:15:47
(UTC+00:00)

Cosmos 2297 Rocket - Pass Details

Date: 29 May 2022
Orbit: 840 x 842 km, 71.0° (Epoch: 28 June)

Event Time Altitude Azimuth Distance (km) Brightness Sun altitude
Rises 13:29:18 0° 325° (NW) 3,382 6.1 -41.3°
Reaches altitude 10° 13:32:01 10° 315° (NW) 2,450 5.2 -41.9°
Enters shadow 13:33:54 19° 301° (WNW) 1,890 4.5 -42.3°
